Location: Montr�al
(45.5000°N, 73.5830°W)
Time: 16:49:13
(UTC-04:00)

ISS - All Passes

Search period start: 25 September 2016 00:00
Search period end: 05 October 2016 00:00
Orbit: 401 x 409 km, 51.6° (Epoch: 26 September)

Date Brightness Start Highest point End Pass type
(mag) Time Alt. Az. Time Alt. Az. Time Alt. Az.
25 Sep - 00:11:44 10° WNW 00:14:42 32° NNW 00:17:43 10° NE night (unlit)
25 Sep - 01:48:52 10° NW 01:51:48 29° N 01:54:44 10° ENE night (unlit)
25 Sep - 03:25:20 10° WNW 03:28:38 78° NNE 03:31:56 10° ESE night (unlit)
25 Sep - 05:02:33 10° W 05:04:47 17° SW 05:07:00 10° S visible
25 Sep - 21:42:52 10° SW 21:45:59 43° SE 21:49:07 10° ENE night (unlit)
25 Sep - 23:19:24 10° W 23:22:31 40° NNW 23:25:39 10° NE night (unlit)
26 Sep - 00:56:42 10° WNW 00:59:33 27° N 01:02:25 10° ENE night (unlit)
26 Sep - 02:33:17 10° NW 02:36:31 51° NNE 02:39:45 10° E night (unlit)
26 Sep - 04:10:00 10° WNW 04:12:54 29° SW 04:15:48 10° SSE night (unlit)
26 Sep - 20:51:19 10° SSW 20:54:03 25° SE 20:56:47 10° E visible
26 Sep - 22:27:08 10° WSW 22:30:22 57° NNW 22:33:35 10° ENE night (unlit)
27 Sep - 00:04:26 10° WNW 00:07:17 27° N 00:10:10 10° ENE night (unlit)
27 Sep - 01:41:14 10° NW 01:44:21 37° NNE 01:47:26 10° E night (unlit)
27 Sep - 03:17:44 10° WNW 03:20:56 51° SW 03:24:08 10° SE night (unlit)
27 Sep - 20:00:20 10° SSE 20:02:10 14° SE 20:04:01 10° E visible
27 Sep - 21:34:58 10° WSW 21:38:14 89° NNW 21:41:32 10° ENE visible
27 Sep - 23:12:05 10° WNW 23:15:02 30° N 23:17:59 10° NE night (unlit)
28 Sep - 00:49:09 10° NW 00:52:07 30° N 00:55:05 10° ENE night (unlit)
28 Sep - 02:25:35 10° WNW 02:28:53 87° SW 02:32:11 10° ESE night (unlit)
28 Sep - 04:03:11 10° W 04:04:56 14° SW 04:06:42 10° SSW night (unlit)
28 Sep - 20:43:00 10° SW 20:46:11 53° SE 20:49:23 10° ENE visible
28 Sep - 22:19:43 10° W 22:22:47 36° NNW 22:25:52 10° NE night (unlit)
28 Sep - 23:56:58 10° WNW 23:59:50 27° N 00:02:43 10° ENE night (unlit)
29 Sep - 01:33:30 10° WNW 01:36:46 59° NNE 01:40:01 10° ESE night (unlit)
29 Sep - 03:10:21 10° W 03:13:03 24° SW 03:15:45 10° SSE night (unlit)
29 Sep - 19:51:16 10° SSW 19:54:11 30° SE 19:57:06 10° ENE visible
29 Sep - 21:27:23 10° W 21:30:34 49° NNW 21:33:46 10° NE visible
29 Sep - 23:04:42 10° WNW 23:07:33 26° N 23:10:24 10° ENE night (unlit)
30 Sep - 00:41:26 10° NW 00:44:34 41° NNE 00:47:42 10° E night (unlit)
30 Sep - 02:17:57 10° WNW 02:21:04 41° SW 02:24:11 10° SE night (unlit)
30 Sep - 18:59:59 10° S 19:02:14 18° SE 19:04:30 10° E visible
30 Sep - 20:35:08 10° WSW 20:38:23 75° NNW 20:41:40 10° ENE visible
30 Sep - 22:12:20 10° WNW 22:15:15 28° N 22:18:09 10° NE visible
30 Sep - 23:49:19 10° NW 23:52:19 32° NNE 23:55:19 10° E night (unlit)
01 Oct - 01:25:44 10° WNW 01:29:01 72° SSW 01:32:17 10° SE night (unlit)
01 Oct - 03:04:00 10° WSW 03:04:58 11° SW 03:05:57 10° SSW night (unlit)
01 Oct - 19:43:03 10° SW 19:46:16 66° SSE 19:49:31 10° ENE visible
01 Oct - 21:19:56 10° W 21:22:56 33° NNW 21:25:58 10° NE visible
01 Oct - 22:57:07 10° NW 23:00:01 28° N 23:02:54 10° ENE night (unlit)
02 Oct - 00:33:36 10° WNW 00:36:52 70° NNE 00:40:09 10° ESE night (unlit)
02 Oct - 02:10:38 10° W 02:13:05 19° SW 02:15:31 10° S night (unlit)
02 Oct - 18:51:10 10° SSW 18:54:12 37° SE 18:57:16 10° ENE daylight
02 Oct - 20:27:33 10° W 20:30:40 43° NNW 20:33:49 10° NE visible
02 Oct - 22:04:50 10° WNW 22:07:41 26° N 22:10:32 10° ENE visible
02 Oct - 23:41:29 10° NW 23:44:40 46° NNE 23:47:51 10° E night (unlit)
03 Oct - 01:18:06 10° WNW 01:21:06 33° SW 01:24:05 10° SSE night (unlit)
03 Oct - 17:59:39 10° S 18:02:12 21° SE 18:04:46 10° E daylight
03 Oct - 19:35:13 10° WSW 19:38:26 63° NNW 19:41:42 10° ENE visible
03 Oct - 21:12:28 10° WNW 21:15:20 27° N 21:18:13 10° NE visible
03 Oct - 22:49:21 10° NW 22:52:24 35° NNE 22:55:27 10° E night (unlit)
04 Oct - 00:25:47 10° WNW 00:29:01 59° SSW 00:32:15 10° SE night (unlit)
04 Oct - 17:08:52 10° SSE 17:10:16 12° SE 17:11:40 10° ESE daylight
04 Oct - 18:43:01 10° SW 18:46:15 81° SSE 18:49:32 10° ENE daylight
04 Oct - 20:20:03 10° WNW 20:23:00 31° NNW 20:25:58 10° NE visible
04 Oct - 21:57:09 10° NW 22:00:04 29° N 22:03:00 10° ENE visible
04 Oct - 23:33:35 10° WNW 23:36:52 82° NNE 23:40:09 10° ESE night (unlit)
